Newport Airport, OR

4:28 PM PDT on June 24, 2017 (GMT -0700)
Newport Municipal

Weather History for KONP - October, 2011

Change the Weather History Date:

Friday, October 14, 2011

  Actual Average Record
Temperature  
Mean Temperature 53 °F -  
Max Temperature 60 °F 58 °F 73 °F (2002)
Min Temperature 46 °F 46 °F 37 °F (2002)
Degree Days  
Heating Degree Days 12    
Growing Degree Days 3 (Base 50)    
Moisture  
Dew Point 49 °F    
Average Humidity 85    
Maximum Humidity 94    
Minimum Humidity 72    
Precipitation  
Precipitation 0.01 in - - ()
Sea Level Pressure  
Sea Level Pressure 29.97 in    
Wind  
Wind Speed 6 mph (ENE)    
Max Wind Speed 14 mph    
Max Gust Speed 17 mph    
Visibility 10 miles    
Events Rain    
Averages and records for this station are not official NWS values.
T = Trace of Precipitation, MM = Missing Value Source: NWS Daily Summary

Daily Weather History Graph

Daily Weather History Graph

Search for Another Location

Airport or City:

Trip Planner

Search our weather history database for the weather conditions in past years. The results will help you decide how hot, cold, wet, or windy it might be!

Date:

Astronomy

Oct. 14, 2011 Rise Set
Actual Time 7:30 AM PDT 6:33 PM PDT
Civil Twilight 7:00 AM PDT 7:03 PM PDT
Nautical Twilight 6:26 AM PDT 7:36 PM PDT
Astronomical Twilight 5:53 AM PDT 8:10 PM PDT
Moon 7:42 PM PDT (10/14) 10:12 AM PDT (10/14)
Length of Visible Light 12h 02m
Length of Day
11h 03m
Waning Gibbous, 94% of the Moon is Illuminated
Oct 14
Waning Gibbous
Oct 19
Last Quarter
Oct 26
New
Nov 2
First Quarter
Nov 10
Full

Hourly Weather History & Observations

Time (PDT) Temp. Windchill Dew Point Humidity Pressure Visibility Wind Dir Wind Speed Gust Speed Precip Events Conditions
12:15 AM 46.4 °F 45.2 °F 44.6 °F 93% 29.97 in 10.0 mi ENE 3.5 mph - N/A   Scattered Clouds
12:35 AM 50.0 °F - 46.4 °F 87% 29.96 in 10.0 mi ENE 5.8 mph - N/A   Clear
12:55 AM 50.0 °F - 46.4 °F 87% 29.96 in 10.0 mi East 8.1 mph - N/A   Scattered Clouds
1:15 AM 50.0 °F - 46.4 °F 87% 29.96 in 10.0 mi East 8.1 mph - N/A   Scattered Clouds
1:35 AM 50.0 °F - 46.4 °F 87% 29.97 in 10.0 mi Calm Calm - N/A   Overcast
1:55 AM 50.0 °F - 46.4 °F 87% 29.97 in 10.0 mi East 4.6 mph - N/A   Overcast
2:15 AM 50.0 °F - 46.4 °F 87% 29.97 in 10.0 mi East 8.1 mph - N/A   Overcast
2:35 AM 50.0 °F - 46.4 °F 87% 29.98 in 10.0 mi East 5.8 mph - N/A   Overcast
2:55 AM 51.8 °F - 46.4 °F 82% 29.97 in 10.0 mi East 6.9 mph - N/A   Overcast
3:15 AM 50.0 °F - 46.4 °F 87% 29.97 in 10.0 mi East 6.9 mph - N/A   Scattered Clouds
3:35 AM 50.0 °F - 46.4 °F 87% 29.96 in 10.0 mi East 8.1 mph - N/A   Clear
3:55 AM 50.0 °F - 46.4 °F 87% 29.96 in 10.0 mi East 8.1 mph - N/A   Clear
4:15 AM 50.0 °F - 46.4 °F 87% 29.95 in 10.0 mi East 8.1 mph - N/A   Clear
4:55 AM 50.0 °F - 46.4 °F 87% 29.95 in 10.0 mi East 10.4 mph - N/A   Clear
5:15 AM 50.0 °F - 46.4 °F 87% 29.94 in 10.0 mi East 9.2 mph - N/A   Clear
5:35 AM 50.0 °F - 46.4 °F 87% 29.94 in 10.0 mi East 8.1 mph - N/A   Clear
6:15 AM 50.0 °F - 46.4 °F 87% 29.96 in 10.0 mi East 9.2 mph - N/A   Clear
6:35 AM 50.0 °F - 46.4 °F 87% 29.96 in 10.0 mi East 8.1 mph - N/A   Scattered Clouds
6:55 AM 50.0 °F - 46.4 °F 87% 29.96 in 10.0 mi East 6.9 mph - N/A   Overcast
7:15 AM 50.0 °F - 46.4 °F 87% 29.97 in 10.0 mi East 5.8 mph - N/A   Overcast
7:35 AM 50.0 °F - 46.4 °F 87% 29.97 in 10.0 mi East 6.9 mph - N/A   Overcast
7:55 AM 50.0 °F - 46.4 °F 87% 29.97 in 10.0 mi East 6.9 mph - N/A   Overcast
8:15 AM 50.0 °F - 46.4 °F 87% 29.97 in 10.0 mi East 6.9 mph - N/A   Overcast
8:35 AM 51.8 °F - 46.4 °F 82% 29.96 in 10.0 mi East 8.1 mph - N/A   Overcast
8:55 AM 51.8 °F - 46.4 °F 82% 29.96 in 10.0 mi East 6.9 mph - N/A   Overcast
9:15 AM 51.8 °F - 48.2 °F 88% 29.98 in 10.0 mi ENE 6.9 mph - N/A   Overcast
9:35 AM 53.6 °F - 48.2 °F 82% 29.99 in 10.0 mi Calm Calm - N/A   Overcast
9:55 AM 53.6 °F - 48.2 °F 82% 29.98 in 10.0 mi NNE 3.5 mph - N/A Rain Light Rain
10:15 AM 53.6 °F - 50.0 °F 88% 29.99 in 10.0 mi North 3.5 mph - N/A   Overcast
10:35 AM 53.6 °F - 50.0 °F 88% 29.99 in 10.0 mi ENE 3.5 mph - N/A   Light Drizzle
10:55 AM 53.6 °F - 50.0 °F 88% 30.00 in 10.0 mi NE 3.5 mph - N/A   Overcast
11:15 AM 53.6 °F - 50.0 °F 88% 29.99 in 10.0 mi ENE 3.5 mph - N/A   Light Drizzle
11:35 AM 53.6 °F - 51.8 °F 94% 29.99 in 10.0 mi East 5.8 mph - N/A   Overcast
11:55 AM 53.6 °F - 50.0 °F 88% 29.99 in 10.0 mi ENE 4.6 mph - N/A   Overcast
12:15 PM 55.4 °F - 51.8 °F 88% 29.99 in 10.0 mi East 3.5 mph - N/A   Overcast
12:35 PM 55.4 °F - 51.8 °F 88% 29.98 in 10.0 mi East 8.1 mph - N/A   Overcast
12:55 PM 57.2 °F - 51.8 °F 82% 29.97 in 10.0 mi East 5.8 mph - N/A   Overcast
1:15 PM 57.2 °F - 51.8 °F 82% 29.97 in 10.0 mi ENE 3.5 mph - N/A   Overcast
1:35 PM 59.0 °F - 53.6 °F 82% 29.96 in 10.0 mi North 5.8 mph - N/A Rain Light Rain
1:55 PM 60.8 °F - 51.8 °F 72% 29.95 in 10.0 mi NE 5.8 mph - N/A   Scattered Clouds
2:15 PM 60.8 °F - 53.6 °F 77% 29.94 in 10.0 mi East 6.9 mph - N/A   Mostly Cloudy
2:35 PM 60.8 °F - 51.8 °F 72% 29.96 in 10.0 mi ENE 3.5 mph - N/A   Overcast
2:55 PM 60.8 °F - 53.6 °F 77% 29.96 in 10.0 mi NW 9.2 mph - N/A   Overcast
3:15 PM 59.0 °F - 51.8 °F 77% 29.96 in 10.0 mi NNW 10.4 mph - N/A   Overcast
3:35 PM 59.0 °F - 51.8 °F 77% 29.96 in 10.0 mi NNW 10.4 mph - N/A   Overcast
3:55 PM 59.0 °F - 51.8 °F 77% 29.96 in 10.0 mi North 12.7 mph 16.1 mph N/A   Overcast
4:15 PM 59.0 °F - 51.8 °F 77% 29.96 in 10.0 mi NNW 13.8 mph - N/A   Overcast
4:35 PM 57.2 °F - 51.8 °F 82% 29.97 in 10.0 mi North 9.2 mph - N/A   Overcast
4:55 PM 57.2 °F - 51.8 °F 82% 29.96 in 10.0 mi NNW 11.5 mph - N/A   Overcast
5:15 PM 55.4 °F - 51.8 °F 88% 29.96 in 10.0 mi North 8.1 mph - N/A   Overcast
5:35 PM 55.4 °F - 51.8 °F 88% 29.96 in 10.0 mi North 9.2 mph - N/A   Overcast
5:55 PM 55.4 °F - 51.8 °F 88% 29.96 in 10.0 mi North 12.7 mph 17.3 mph N/A   Overcast
6:15 PM 55.4 °F - 51.8 °F 88% 29.96 in 7.0 mi North 11.5 mph - N/A Rain Rain
6:35 PM 55.4 °F - 51.8 °F 88% 29.96 in 10.0 mi North 5.8 mph - N/A   Overcast
6:55 PM 55.4 °F - 51.8 °F 88% 29.97 in 10.0 mi Calm Calm - N/A Rain Light Rain
7:15 PM 53.6 °F - 51.8 °F 94% 29.96 in 10.0 mi East 3.5 mph - N/A Rain Rain
7:55 PM 53.6 °F - 51.8 °F 94% 29.97 in 10.0 mi NNW 4.6 mph - 0.01 in Rain Light Rain
8:15 PM 53.6 °F - 51.8 °F 94% 29.97 in 10.0 mi Calm Calm - N/A   Overcast
8:35 PM 53.6 °F - 51.8 °F 94% 29.98 in 10.0 mi Calm Calm - N/A   Overcast
8:55 PM 53.6 °F - 51.8 °F 94% 29.99 in 7.0 mi NNW 4.6 mph - N/A   Light Drizzle
9:15 PM 53.6 °F - 51.8 °F 94% 29.98 in 10.0 mi NNE 3.5 mph - N/A   Light Drizzle
9:35 PM 53.6 °F - 51.8 °F 94% 29.99 in 10.0 mi Calm Calm - N/A   Overcast
10:15 PM 53.6 °F - 51.8 °F 94% 29.97 in 10.0 mi Calm Calm - N/A   Overcast
10:35 PM 53.6 °F - 51.8 °F 94% 30.00 in 10.0 mi Calm Calm - N/A   Overcast
10:55 PM 53.6 °F - 51.8 °F 94% 30.00 in 10.0 mi North 3.5 mph - N/A Rain Light Rain
11:15 PM 53.6 °F - 51.8 °F 94% 29.99 in 10.0 mi NNE 3.5 mph - N/A   Overcast
11:35 PM 53.6 °F - 51.8 °F 94% 30.00 in 10.0 mi NNE 3.5 mph - N/A   Overcast
11:55 PM 53.6 °F - 51.8 °F 94% 30.01 in 10.0 mi North 3.5 mph - N/A   Overcast